Marion-Critt Cnty AP, Marion,, KY

1:17 PM CST on December 14, 2017 (GMT -0600)
Marion-Critt Cnty AP, Marion,

Weather History for K5M9 - January, 2014

Change the Weather History Date:

Monday, January 6, 2014

  Actual Average (KEHR) Record (KEHR)
Temperature  
Mean Temperature 2 °F -  
Max Temperature 4 °F 40 °F 67 °F (1946)
Min Temperature -1 °F 26 °F -10 °F (1940)
Degree Days  
Heating Degree Days 64    
Moisture  
Dew Point -10 °F    
Average Humidity 61    
Maximum Humidity 71    
Minimum Humidity 52    
Precipitation  
Precipitation 0.00 in - - ()
Sea Level Pressure  
Sea Level Pressure 30.44 in    
Wind  
Wind Speed 11 mph (WNW)    
Max Wind Speed 21 mph    
Max Gust Speed 29 mph    
Visibility 10 miles    
Events      
Averages and records for this station are not official NWS values.
T = Trace of Precipitation, MM = Missing Value Source: NWS Daily Summary

Daily Weather History Graph

Daily Weather History Graph

Search for Another Location

Airport or City:

Trip Planner

Search our weather history database for the weather conditions in past years. The results will help you decide how hot, cold, wet, or windy it might be!

Date:

Astronomy

Jan. 06, 2014 Rise Set
Actual Time 7:07 AM CST 4:49 PM CST
Civil Twilight 6:38 AM CST 5:18 PM CST
Nautical Twilight 6:05 AM CST 5:51 PM CST
Astronomical Twilight 5:34 AM CST 6:22 PM CST
Moon 10:30 AM CST (1/6) 11:13 PM CST (1/6)
Length of Visible Light 10h 40m
Length of Day
9h 42m
Waxing Crescent, 35% of the Moon is Illuminated
Jan 6
Waxing Crescent
Jan 7
First Quarter
Jan 15
Full
Jan 23
Last Quarter
Jan 30
New

Hourly Weather History & Observations

Time (CST) Temp. Windchill Dew Point Humidity Pressure Visibility Wind Dir Wind Speed Gust Speed Precip Events Conditions
3:15 AM 3.2 °F -13.9 °F -6.7 °F 63% 30.31 in 10.0 mi NW 12.7 mph 24.2 mph N/A   Overcast
3:35 AM 2.8 °F -13.5 °F -7.1 °F 63% 30.31 in 10.0 mi NW 11.5 mph 28.8 mph N/A   Mostly Cloudy
3:55 AM 2.3 °F -15.7 °F -6.7 °F 66% 30.32 in 10.0 mi NW 13.8 mph 21.9 mph N/A   Mostly Cloudy
4:15 AM 2.3 °F -19.3 °F -6.7 °F 66% 30.33 in 10.0 mi NW 20.7 mph 26.5 mph N/A   Overcast
4:35 AM 1.0 °F -15.8 °F -13.0 °F 52% 30.34 in 10.0 mi NW 11.5 mph 25.3 mph N/A   Scattered Clouds
4:55 AM 0.3 °F -17.5 °F -13.5 °F 52% 30.35 in 10.0 mi NW 12.7 mph 26.5 mph N/A   Clear
5:15 AM 0.1 °F -15.1 °F -13.2 °F 54% 30.36 in 10.0 mi NW 9.2 mph 20.7 mph N/A   Clear
5:35 AM -0.0 °F -19.4 °F -12.6 °F 55% 30.37 in 10.0 mi WNW 15.0 mph 21.9 mph N/A   Clear
5:55 AM -0.4 °F -20.5 °F -12.3 °F 57% 30.37 in 10.0 mi WNW 16.1 mph 20.7 mph N/A   Clear
6:15 AM -0.8 °F -18.9 °F -12.8 °F 57% 30.38 in 10.0 mi NW 12.7 mph 17.3 mph N/A   Clear
6:35 AM -1.3 °F -16.8 °F -12.5 °F 59% 30.39 in 10.0 mi NW 9.2 mph 17.3 mph N/A   Clear
6:55 AM -1.3 °F -19.6 °F -12.3 °F 60% 30.40 in 10.0 mi NW 12.7 mph - N/A   Clear
7:15 AM -1.5 °F -16.0 °F -13.0 °F 58% 30.40 in 10.0 mi NW 8.1 mph - N/A   Clear
7:35 AM -1.5 °F -13.3 °F -12.6 °F 59% 30.40 in 10.0 mi NW 5.8 mph 9.2 mph N/A   Clear
7:55 AM -1.3 °F -13.1 °F -12.3 °F 60% 30.42 in 10.0 mi NW 5.8 mph - N/A   Clear
8:15 AM -0.6 °F -16.0 °F -11.2 °F 61% 30.42 in 10.0 mi NW 9.2 mph 18.4 mph N/A   Scattered Clouds
8:35 AM -0.4 °F -19.2 °F -11.2 °F 60% 30.44 in 10.0 mi WNW 13.8 mph 19.6 mph N/A   Mostly Cloudy
8:55 AM -0.4 °F -19.2 °F -13.5 °F 54% 30.45 in 10.0 mi NW 13.8 mph 20.7 mph N/A   Scattered Clouds
9:15 AM -0.4 °F -20.5 °F -13.4 °F 54% 30.44 in 10.0 mi NW 16.1 mph 20.7 mph N/A   Clear
9:35 AM 0.5 °F -15.6 °F -11.7 °F 56% 30.45 in 10.0 mi WNW 10.4 mph 16.1 mph N/A   Clear
9:55 AM 0.7 °F -17.8 °F -11.0 °F 58% 30.45 in 10.0 mi WNW 13.8 mph 17.3 mph N/A   Clear
10:15 AM 1.6 °F -18.0 °F -10.3 °F 58% 30.44 in 10.0 mi West 16.1 mph - N/A   Scattered Clouds
10:35 AM 1.0 °F -14.0 °F -10.3 °F 59% 30.44 in 10.0 mi WNW 9.2 mph - N/A   Mostly Cloudy
10:55 AM 1.8 °F -13.1 °F -10.1 °F 58% 30.44 in 10.0 mi WNW 9.2 mph 19.6 mph N/A   Mostly Cloudy
11:15 AM 2.5 °F -14.0 °F -8.7 °F 60% 30.43 in 10.0 mi WNW 11.5 mph 18.4 mph N/A   Mostly Cloudy
11:35 AM 2.3 °F -15.0 °F -7.2 °F 64% 30.42 in 10.0 mi WNW 12.7 mph 16.1 mph N/A   Overcast
11:55 AM 2.1 °F -16.0 °F -9.0 °F 60% 30.41 in 10.0 mi West 13.8 mph 18.4 mph N/A   Overcast
12:15 PM 3.2 °F -15.3 °F -9.0 °F 57% 30.41 in 10.0 mi West 15.0 mph 23.0 mph N/A   Overcast
12:35 PM 2.7 °F -12.9 °F -7.6 °F 62% 30.40 in 10.0 mi West 10.4 mph 17.3 mph N/A   Overcast
12:55 PM 1.9 °F -13.8 °F -8.0 °F 63% 30.41 in 10.0 mi West 10.4 mph 17.3 mph N/A   Mostly Cloudy
1:15 PM 2.7 °F -12.0 °F -8.3 °F 60% 30.41 in 10.0 mi West 9.2 mph 17.3 mph N/A   Overcast
1:35 PM 3.0 °F -15.5 °F -10.8 °F 53% 30.41 in 10.0 mi WNW 15.0 mph - N/A   Mostly Cloudy
1:55 PM 2.7 °F -13.8 °F -10.1 °F 55% 30.42 in 10.0 mi West 11.5 mph 19.6 mph N/A   Mostly Cloudy
2:15 PM 3.2 °F -11.3 °F -9.6 °F 55% 30.42 in 10.0 mi WNW 9.2 mph 19.6 mph N/A   Mostly Cloudy
2:35 PM 4.3 °F -12.5 °F -8.5 °F 56% 30.43 in 10.0 mi WNW 12.7 mph 18.4 mph N/A   Overcast
2:55 PM 3.2 °F -13.9 °F -9.4 °F 56% 30.43 in 10.0 mi West 12.7 mph 20.7 mph N/A   Overcast
3:15 PM 3.2 °F -13.1 °F -9.8 °F 55% 30.44 in 10.0 mi West 11.5 mph 20.7 mph N/A   Overcast
3:35 PM 2.7 °F -13.8 °F -9.4 °F 57% 30.44 in 10.0 mi WNW 11.5 mph 17.3 mph N/A   Overcast
3:55 PM 2.1 °F -11.6 °F -10.3 °F 56% 30.45 in 10.0 mi West 8.1 mph 18.4 mph N/A   Overcast
4:15 PM 2.1 °F -10.4 °F -9.6 °F 58% 30.45 in 10.0 mi West 6.9 mph 16.1 mph N/A   Mostly Cloudy
4:35 PM 1.4 °F -13.5 °F -10.5 °F 58% 30.46 in 10.0 mi West 9.2 mph 16.1 mph N/A   Scattered Clouds
4:55 PM 1.4 °F -13.5 °F -9.8 °F 60% 30.46 in 10.0 mi West 9.2 mph - N/A   Mostly Cloudy
5:15 PM 1.2 °F -13.7 °F -9.4 °F 61% 30.46 in 10.0 mi West 9.2 mph - N/A   Scattered Clouds
5:35 PM 1.0 °F -12.9 °F -10.8 °F 58% 30.46 in 10.0 mi WNW 8.1 mph - N/A   Clear
5:55 PM 0.7 °F -10.7 °F -10.5 °F 59% 30.47 in 10.0 mi West 5.8 mph - N/A   Clear
6:15 PM 0.5 °F -11.0 °F -10.3 °F 60% 30.47 in 10.0 mi West 5.8 mph - N/A   Clear
6:35 PM 0.3 °F -7.5 °F -9.8 °F 63% 30.47 in 10.0 mi West 3.5 mph - N/A   Clear
6:55 PM 0.1 °F -9.7 °F -9.4 °F 64% 30.48 in 10.0 mi West 4.6 mph - N/A   Clear
7:15 PM 0.1 °F -7.7 °F -9.4 °F 64% 30.48 in 10.0 mi West 3.5 mph - N/A   Clear
7:35 PM 0.1 °F -9.7 °F -9.4 °F 64% 30.48 in 10.0 mi West 4.6 mph - N/A   Clear
7:55 PM -0.0 °F -7.9 °F -8.9 °F 66% 30.49 in 10.0 mi West 3.5 mph - N/A   Clear
8:15 PM -0.4 °F - -8.9 °F 67% 30.50 in 10.0 mi Calm Calm - N/A   Clear
8:35 PM -0.6 °F - -8.0 °F 71% 30.50 in 10.0 mi Calm Calm - N/A   Clear
8:55 PM -0.4 °F - -8.1 °F 70% 30.51 in 10.0 mi Calm Calm - N/A   Clear
9:15 PM -0.6 °F -8.5 °F -8.7 °F 69% 30.51 in 10.0 mi WNW 3.5 mph - N/A   Clear
9:35 PM -0.8 °F -8.7 °F -8.9 °F 69% 30.52 in 10.0 mi WNW 3.5 mph - N/A   Clear
9:55 PM -0.8 °F -12.5 °F -8.7 °F 69% 30.53 in 10.0 mi WNW 5.8 mph - N/A   Clear
10:15 PM -1.3 °F -9.3 °F -8.7 °F 71% 30.52 in 10.0 mi WNW 3.5 mph - N/A   Clear
10:35 PM -1.3 °F -9.3 °F -8.7 °F 71% 30.52 in 10.0 mi WNW 3.5 mph - N/A   Clear
10:55 PM -0.9 °F -11.0 °F -8.7 °F 70% 30.52 in 10.0 mi WNW 4.6 mph - N/A   Clear
11:15 PM -0.9 °F -8.9 °F -9.4 °F 67% 30.52 in 10.0 mi West 3.5 mph - N/A   Clear
11:35 PM -1.1 °F -9.1 °F -9.4 °F 68% 30.52 in 10.0 mi SW 3.5 mph - N/A   Clear
11:55 PM -1.3 °F -13.1 °F -9.6 °F 68% 30.52 in 10.0 mi West 5.8 mph - N/A   Clear